Tracking 28799 objects as of 18-Apr-2024
HD Live streaming from Space Station
objects crossing your sky now

SL-14 R/B

Track SL-14 R/B now!
10-day predictions


NORAD ID: 16720
Int'l Code: 1986-034B
Perigee: 608.1 km
Apogee: 637.1 km
Inclination: 82.6 °
Period: 97.0 minutes
Semi major axis: 6993 km
RCS: 3.5564 m2 (large)
Launch date: May 15, 1986
Source: Commonwealth of Independent States (former USSR) (CIS)
Launch site: PLESETSK MISSILE AND SPACE COMPLEX (PKMTR)

Note: This is a ROCKET BODY
Your satellite tracking list
Your tracking list is empty




NASA's NSSDC Master Catalog

Two Line Element Set (TLE):
1 16720U 86034B   24108.91614088  .00001419  00000-0  16545-3 0  9998
2 16720  82.5527  72.9277 0020728 138.2744 275.2929 14.84401285 28349
Source of the keplerian elements: AFSPC